Time,TemperatureF,DewpointF,PressureIn,WindDirection,WindDirectionDegrees,WindSpeedMPH,WindSpeedGustMPH,Humidity,HourlyPrecipIn,Conditions,Clouds,dailyrainin,SoftwareType,DateUTC
2013-01-13 00:02:00,37.0,33.6,29.90,NNE,26,7.0,15.0,87,0.00,,,0.69,meteohub,2013-01-13 06:02:00,
2013-01-13 00:07:00,36.9,33.4,29.91,North,9,4.0,15.0,87,0.00,,,0.00,meteohub,2013-01-13 06:07:00,
2013-01-13 00:12:00,36.7,33.3,29.91,NW,309,4.0,13.0,87,0.00,,,0.00,meteohub,2013-01-13 06:12:00,
2013-01-13 00:17:00,36.7,33.3,29.92,NNW,348,4.0,13.0,87,0.00,,,0.00,meteohub,2013-01-13 06:17:00,
2013-01-13 00:22:00,36.7,33.3,29.92,NW,312,6.0,12.0,87,0.00,,,0.00,meteohub,2013-01-13 06:22:00,
2013-01-13 00:27:00,36.5,32.7,29.91,NNE,25,5.0,12.0,86,0.00,,,0.00,meteohub,2013-01-13 06:27:00,
2013-01-13 00:32:00,36.3,32.5,29.91,North,5,7.0,12.0,86,0.00,,,0.00,meteohub,2013-01-13 06:32:00,
2013-01-13 00:37:00,36.1,32.4,29.92,NNE,32,4.0,12.0,86,0.00,,,0.00,meteohub,2013-01-13 06:37:00,
2013-01-13 00:42:00,36.1,32.4,29.92,NNE,27,2.0,12.0,86,0.00,,,0.00,meteohub,2013-01-13 06:42:00,
2013-01-13 00:47:00,36.1,32.4,29.91,NNW,345,7.0,12.0,86,0.00,,,0.00,meteohub,2013-01-13 06:47:00,
2013-01-13 00:52:00,36.1,32.4,29.92,North,0,6.0,15.0,86,0.00,,,0.00,meteohub,2013-01-13 06:52:00,
2013-01-13 00:57:00,36.0,32.2,29.94,NW,317,7.0,15.0,86,0.00,,,0.00,meteohub,2013-01-13 06:57:00,
2013-01-13 01:03:00,36.0,32.2,29.92,NNE,24,7.0,15.0,86,0.00,,,0.00,meteohub,2013-01-13 07:03:00,
2013-01-13 01:08:00,36.0,32.2,29.94,North,355,3.0,11.0,86,0.00,,,0.00,meteohub,2013-01-13 07:08:00,
2013-01-13 01:13:00,36.0,32.2,29.93,NNE,26,5.0,11.0,86,0.00,,,0.00,meteohub,2013-01-13 07:13:00,
2013-01-13 01:19:00,36.0,32.2,29.94,NNE,26,3.0,9.0,86,0.00,,,0.00,meteohub,2013-01-13 07:19:00,
2013-01-13 01:24:00,35.8,32.0,29.94,NW,316,10.0,10.0,86,0.00,,,0.00,meteohub,2013-01-13 07:24:00,
2013-01-13 01:29:00,35.8,32.0,29.95,NNW,329,4.0,9.0,86,0.00,,,0.00,meteohub,2013-01-13 07:29:00,
2013-01-13 01:34:00,35.8,32.0,29.94,NNW,331,7.0,13.0,86,0.00,,,0.00,meteohub,2013-01-13 07:34:00,
2013-01-13 01:40:00,35.6,31.8,29.95,North,0,6.0,13.0,86,0.00,,,0.00,meteohub,2013-01-13 07:40:00,
2013-01-13 01:45:00,35.6,31.8,29.95,NNE,29,6.0,22.0,86,0.00,,,0.00,meteohub,2013-01-13 07:45:00,
2013-01-13 01:50:00,35.4,31.3,29.96,North,10,6.0,22.0,85,0.00,,,0.00,meteohub,2013-01-13 07:50:00,
2013-01-13 01:55:00,35.4,31.3,29.99,NW,319,6.0,22.0,85,0.00,,,0.00,meteohub,2013-01-13 07:55:00,
2013-01-13 02:00:00,35.4,31.3,29.99,NW,321,7.0,14.0,85,0.00,,,0.00,meteohub,2013-01-13 08:00:00,
2013-01-13 02:06:00,35.4,31.1,30.01,North,0,5.0,14.0,84,0.00,,,0.00,meteohub,2013-01-13 08:06:00,
2013-01-13 02:11:00,35.4,31.1,29.97,NE,35,8.0,18.0,84,0.00,,,0.00,meteohub,2013-01-13 08:11:00,
2013-01-13 02:16:00,35.4,30.7,29.95,NNE,25,5.0,18.0,83,0.00,,,0.00,meteohub,2013-01-13 08:16:00,
2013-01-13 02:21:00,35.2,31.1,29.98,North,351,5.0,13.0,85,0.00,,,0.00,meteohub,2013-01-13 08:21:00,
2013-01-13 02:27:00,35.2,31.1,29.97,North,351,5.0,13.0,85,0.00,,,0.00,meteohub,2013-01-13 08:27:00,
2013-01-13 02:32:00,35.2,30.9,29.98,NW,326,8.0,13.0,84,0.00,,,0.00,meteohub,2013-01-13 08:32:00,
2013-01-13 02:37:00,35.2,30.9,29.98,North,9,3.0,14.0,84,0.00,,,0.00,meteohub,2013-01-13 08:37:00,
2013-01-13 02:42:00,35.1,30.4,29.98,North,355,4.0,14.0,83,0.00,,,0.00,meteohub,2013-01-13 08:42:00,
2013-01-13 02:47:00,35.1,30.4,29.98,NW,317,5.0,14.0,83,0.00,,,0.00,meteohub,2013-01-13 08:47:00,
2013-01-13 02:52:00,35.1,30.4,29.99,NNE,17,4.0,14.0,83,0.00,,,0.00,meteohub,2013-01-13 08:52:00,
2013-01-13 02:57:00,35.1,30.4,30.01,NNE,19,5.0,13.0,83,0.00,,,0.00,meteohub,2013-01-13 08:57:00,
2013-01-13 03:02:00,35.1,30.2,30.00,North,0,6.0,13.0,82,0.00,,,0.00,meteohub,2013-01-13 09:02:00,
2013-01-13 03:07:00,34.9,29.7,29.99,NNE,12,6.0,13.0,81,0.00,,,0.00,meteohub,2013-01-13 09:07:00,
2013-01-13 03:12:00,34.9,30.0,30.00,North,350,5.0,16.0,82,0.00,,,0.00,meteohub,2013-01-13 09:12:00,
2013-01-13 03:17:00,34.9,29.7,30.00,NNW,337,7.0,16.0,81,0.00,,,0.00,meteohub,2013-01-13 09:17:00,
2013-01-13 03:23:00,34.7,29.5,29.97,NNE,19,12.0,14.0,81,0.00,,,0.00,meteohub,2013-01-13 09:23:00,
2013-01-13 03:28:00,34.5,29.3,29.99,North,0,4.0,14.0,81,0.00,,,0.00,meteohub,2013-01-13 09:28:00,
2013-01-13 03:33:00,34.5,29.3,30.01,North,0,3.0,14.0,81,0.00,,,0.00,meteohub,2013-01-13 09:33:00,
2013-01-13 03:38:00,34.5,29.3,30.01,North,11,1.0,14.0,81,0.00,,,0.00,meteohub,2013-01-13 09:38:00,
2013-01-13 03:44:00,34.5,28.9,30.00,NNE,28,5.0,14.0,80,0.00,,,0.00,meteohub,2013-01-13 09:44:00,
2013-01-13 03:49:00,34.5,29.3,30.01,NNW,345,4.0,13.0,81,0.00,,,0.00,meteohub,2013-01-13 09:49:00,
2013-01-13 03:54:00,34.5,28.9,29.99,North,0,5.0,13.0,80,0.00,,,0.00,meteohub,2013-01-13 09:54:00,
2013-01-13 03:59:00,34.3,29.1,30.00,NNW,333,8.0,13.0,81,0.00,,,0.00,meteohub,2013-01-13 09:59:00,
2013-01-13 04:05:00,34.5,29.3,30.01,NNW,328,7.0,13.0,81,0.00,,,0.00,meteohub,2013-01-13 10:05:00,
2013-01-13 04:10:00,34.5,28.9,29.99,North,9,4.0,15.0,80,0.00,,,0.00,meteohub,2013-01-13 10:10:00,
2013-01-13 04:15:00,34.3,28.8,29.98,NNW,327,4.0,15.0,80,0.00,,,0.00,meteohub,2013-01-13 10:15:00,
2013-01-13 04:20:00,34.3,28.8,29.99,North,0,3.0,15.0,80,0.00,,,0.00,meteohub,2013-01-13 10:20:00,
2013-01-13 04:25:00,34.3,28.8,29.99,NNE,32,10.0,15.0,80,0.00,,,0.00,meteohub,2013-01-13 10:25:00,
2013-01-13 04:31:00,34.3,28.8,29.99,NNE,22,4.0,15.0,80,0.00,,,0.00,meteohub,2013-01-13 10:31:00,
2013-01-13 04:36:00,34.3,28.8,29.99,North,0,1.0,15.0,80,0.00,,,0.00,meteohub,2013-01-13 10:36:00,
2013-01-13 04:41:00,34.3,28.8,30.01,NNE,13,5.0,15.0,80,0.00,,,0.00,meteohub,2013-01-13 10:41:00,
2013-01-13 04:46:00,34.2,28.6,29.99,WNW,293,6.0,13.0,80,0.00,,,0.00,meteohub,2013-01-13 10:46:00,
2013-01-13 04:52:00,34.2,28.6,29.99,NNE,20,5.0,13.0,80,0.00,,,0.00,meteohub,2013-01-13 10:52:00,
2013-01-13 04:57:00,34.2,28.4,30.00,North,9,5.0,13.0,79,0.00,,,0.00,meteohub,2013-01-13 10:57:00,
2013-01-13 05:02:00,34.2,28.4,30.01,NNW,333,5.0,13.0,79,0.00,,,0.00,meteohub,2013-01-13 11:02:00,
2013-01-13 05:07:00,34.2,28.4,30.01,North,5,5.0,13.0,79,0.00,,,0.00,meteohub,2013-01-13 11:07:00,
2013-01-13 05:12:00,34.2,28.4,30.01,NNW,345,7.0,13.0,79,0.00,,,0.00,meteohub,2013-01-13 11:12:00,
2013-01-13 05:17:00,34.2,28.4,30.01,NNE,23,4.0,14.0,79,0.00,,,0.00,meteohub,2013-01-13 11:17:00,
2013-01-13 05:22:00,34.2,28.4,30.01,North,355,7.0,14.0,79,0.00,,,0.00,meteohub,2013-01-13 11:22:00,
2013-01-13 05:27:00,34.2,28.4,30.02,NNW,333,9.0,14.0,79,0.00,,,0.00,meteohub,2013-01-13 11:27:00,
2013-01-13 05:32:00,34.2,28.4,30.04,NW,320,5.0,14.0,79,0.00,,,0.00,meteohub,2013-01-13 11:32:00,
2013-01-13 05:37:00,34.2,28.4,30.03,North,0,6.0,17.0,79,0.00,,,0.00,meteohub,2013-01-13 11:37:00,
2013-01-13 05:42:00,34.0,28.2,30.03,NNW,329,3.0,17.0,79,0.00,,,0.00,meteohub,2013-01-13 11:42:00,
2013-01-13 05:47:00,34.0,28.4,30.03,NW,323,7.0,17.0,80,0.00,,,0.00,meteohub,2013-01-13 11:47:00,
2013-01-13 05:52:00,34.0,28.4,30.04,NW,325,17.0,17.0,80,0.00,,,0.00,meteohub,2013-01-13 11:52:00,
2013-01-13 05:57:00,33.8,28.2,30.04,North,11,4.0,16.0,80,0.00,,,0.00,meteohub,2013-01-13 11:57:00,
2013-01-13 06:02:00,33.8,28.2,30.04,North,351,6.0,16.0,80,0.00,,,0.00,meteohub,2013-01-13 12:02:00,
2013-01-13 06:07:00,33.8,28.2,30.05,NNW,333,4.0,16.0,80,0.00,,,0.00,meteohub,2013-01-13 12:07:00,
2013-01-13 06:12:00,33.6,28.0,30.06,NNE,22,3.0,16.0,80,0.00,,,0.00,meteohub,2013-01-13 12:12:00,
2013-01-13 06:17:00,33.6,28.0,30.04,North,350,9.0,10.0,80,0.00,,,0.00,meteohub,2013-01-13 12:17:00,
2013-01-13 06:22:00,33.6,28.0,30.05,NNW,344,2.0,10.0,80,0.00,,,0.00,meteohub,2013-01-13 12:22:00,
2013-01-13 06:27:00,33.4,27.9,30.06,NW,321,2.0,10.0,80,0.00,,,0.00,meteohub,2013-01-13 12:27:00,
2013-01-13 06:32:00,33.6,28.0,30.07,North,355,3.0,10.0,80,0.00,,,0.00,meteohub,2013-01-13 12:32:00,
2013-01-13 06:37:00,33.4,27.7,30.06,NNE,19,6.0,11.0,79,0.00,,,0.00,meteohub,2013-01-13 12:37:00,
2013-01-13 06:42:00,33.4,27.7,30.08,NW,317,5.0,11.0,79,0.00,,,0.00,meteohub,2013-01-13 12:42:00,
2013-01-13 06:47:00,33.4,27.3,30.09,NNE,12,4.0,11.0,78,0.00,,,0.00,meteohub,2013-01-13 12:47:00,
2013-01-13 06:52:00,33.4,27.3,30.08,NNE,28,6.0,11.0,78,0.00,,,0.00,meteohub,2013-01-13 12:52:00,
2013-01-13 06:57:00,33.4,27.3,30.09,NNE,23,3.0,12.0,78,0.00,,,0.00,meteohub,2013-01-13 12:57:00,
2013-01-13 07:02:00,33.4,27.7,30.09,NNW,342,1.0,12.0,79,0.00,,,0.00,meteohub,2013-01-13 13:02:00,
2013-01-13 07:07:00,33.4,27.7,30.09,NNW,346,3.0,12.0,79,0.00,,,0.00,meteohub,2013-01-13 13:07:00,
2013-01-13 07:12:00,33.4,27.7,30.09,NNE,24,4.0,12.0,79,0.00,,,0.00,meteohub,2013-01-13 13:12:00,
2013-01-13 07:17:00,33.6,27.9,30.09,NNW,331,3.0,12.0,79,0.00,,,0.00,meteohub,2013-01-13 13:17:00,
2013-01-13 07:22:00,33.4,27.7,30.10,NNE,25,4.0,10.0,79,0.00,,,0.00,meteohub,2013-01-13 13:22:00,
2013-01-13 07:27:00,33.4,27.3,30.12,NNE,26,3.0,10.0,78,0.00,,,0.00,meteohub,2013-01-13 13:27:00,
2013-01-13 07:32:00,33.4,27.3,30.11,NE,35,5.0,10.0,78,0.00,,,0.00,meteohub,2013-01-13 13:32:00,
2013-01-13 07:37:00,33.4,27.3,30.12,NNE,14,5.0,10.0,78,0.00,,,0.00,meteohub,2013-01-13 13:37:00,
2013-01-13 07:42:00,33.4,27.3,30.12,North,355,1.0,10.0,78,0.00,,,0.00,meteohub,2013-01-13 13:42:00,
2013-01-13 07:47:00,33.4,27.3,30.12,NNE,20,5.0,10.0,78,0.00,,,0.00,meteohub,2013-01-13 13:47:00,
2013-01-13 07:52:00,33.4,27.3,30.12,North,10,5.0,10.0,78,0.00,,,0.00,meteohub,2013-01-13 13:52:00,
2013-01-13 07:57:00,33.4,27.0,30.13,NNE,15,5.0,10.0,77,0.00,,,0.00,meteohub,2013-01-13 13:57:00,
2013-01-13 08:02:00,33.3,26.6,30.13,NNE,25,5.0,14.0,76,0.00,,,0.00,meteohub,2013-01-13 14:02:00,
2013-01-13 08:08:00,33.3,26.8,30.13,North,355,3.0,14.0,77,0.00,,,0.00,meteohub,2013-01-13 14:08:00,
2013-01-13 08:13:00,33.3,26.8,30.14,NNE,26,2.0,14.0,77,0.00,,,0.00,meteohub,2013-01-13 14:13:00,
2013-01-13 08:18:00,33.3,26.6,30.14,North,350,1.0,12.0,76,0.00,,,0.00,meteohub,2013-01-13 14:18:00,
2013-01-13 08:23:00,33.3,26.6,30.15,NNW,335,8.0,12.0,76,0.00,,,0.00,meteohub,2013-01-13 14:23:00,
2013-01-13 08:29:00,33.3,26.6,30.15,NW,325,3.0,12.0,76,0.00,,,0.00,meteohub,2013-01-13 14:29:00,
2013-01-13 08:34:00,33.3,26.8,30.16,NNW,342,7.0,12.0,77,0.00,,,0.00,meteohub,2013-01-13 14:34:00,
2013-01-13 08:39:00,33.1,26.1,30.16,North,355,7.0,14.0,75,0.00,,,0.00,meteohub,2013-01-13 14:39:00,
2013-01-13 08:44:00,32.7,25.7,30.15,NW,318,6.0,14.0,75,0.00,,,0.00,meteohub,2013-01-13 14:44:00,
2013-01-13 08:50:00,32.5,25.9,30.17,NNE,32,4.0,14.0,76,0.00,,,0.00,meteohub,2013-01-13 14:50:00,
2013-01-13 08:55:00,32.7,25.7,30.16,NW,324,7.0,14.0,75,0.00,,,0.00,meteohub,2013-01-13 14:55:00,
2013-01-13 09:00:00,33.1,26.4,30.16,NNW,341,4.0,14.0,76,0.00,,,0.00,meteohub,2013-01-13 15:00:00,
2013-01-13 09:06:00,33.4,26.4,30.16,North,5,1.0,14.0,75,0.00,,,0.00,meteohub,2013-01-13 15:06:00,
2013-01-13 09:11:00,33.6,26.2,30.18,NW,315,5.0,14.0,74,0.00,,,0.00,meteohub,2013-01-13 15:11:00,
2013-01-13 09:16:00,34.0,26.2,30.17,NNE,32,5.0,15.0,73,0.00,,,0.00,meteohub,2013-01-13 15:16:00,
2013-01-13 09:21:00,34.2,26.4,30.18,NNW,337,2.0,15.0,73,0.00,,,0.00,meteohub,2013-01-13 15:21:00,
2013-01-13 09:27:00,34.7,27.3,30.17,NNE,28,6.0,15.0,74,0.00,,,0.00,meteohub,2013-01-13 15:27:00,
2013-01-13 09:32:00,35.1,27.3,30.18,NNW,346,11.0,15.0,73,0.00,,,0.00,meteohub,2013-01-13 15:32:00,
2013-01-13 09:37:00,34.9,26.8,30.18,North,5,5.0,15.0,72,0.00,,,0.00,meteohub,2013-01-13 15:37:00,
2013-01-13 09:42:00,34.9,27.1,30.18,NW,311,8.0,13.0,73,0.00,,,0.00,meteohub,2013-01-13 15:42:00,
2013-01-13 09:47:00,35.1,27.3,30.19,NNW,347,9.0,13.0,73,0.00,,,0.00,meteohub,2013-01-13 15:47:00,
2013-01-13 09:53:00,34.5,26.1,30.19,NNW,331,7.0,13.0,71,0.00,,,0.00,meteohub,2013-01-13 15:53:00,
2013-01-13 09:58:00,34.9,26.8,30.20,NW,317,9.0,13.0,72,0.00,,,0.00,meteohub,2013-01-13 15:58:00,
2013-01-13 10:03:00,35.1,27.0,30.20,North,10,7.0,13.0,72,0.00,,,0.00,meteohub,2013-01-13 16:03:00,
2013-01-13 10:08:00,35.1,26.6,30.20,WNW,301,6.0,18.0,71,0.00,,,0.00,meteohub,2013-01-13 16:08:00,
2013-01-13 10:14:00,35.1,26.2,30.20,North,5,7.0,17.0,70,0.00,,,0.00,meteohub,2013-01-13 16:14:00,
2013-01-13 10:19:00,35.1,26.6,30.20,NE,34,2.0,17.0,71,0.00,,,0.00,meteohub,2013-01-13 16:19:00,
2013-01-13 10:24:00,35.4,27.0,30.20,NNW,337,6.0,17.0,71,0.00,,,0.00,meteohub,2013-01-13 16:24:00,
2013-01-13 10:30:00,35.8,27.0,30.21,NNE,20,4.0,17.0,70,0.00,,,0.00,meteohub,2013-01-13 16:30:00,
2013-01-13 10:35:00,36.0,27.1,30.20,NNE,14,6.0,17.0,70,0.00,,,0.00,meteohub,2013-01-13 16:35:00,
2013-01-13 10:40:00,36.3,27.9,30.21,NNE,20,5.0,14.0,71,0.00,,,0.00,meteohub,2013-01-13 16:40:00,
2013-01-13 10:45:00,36.1,27.3,30.19,NNW,348,5.0,14.0,70,0.00,,,0.00,meteohub,2013-01-13 16:45:00,
2013-01-13 10:51:00,36.3,27.1,30.19,WNW,301,5.0,11.0,69,0.00,,,0.00,meteohub,2013-01-13 16:51:00,
2013-01-13 10:56:00,35.8,26.6,30.20,NW,322,8.0,11.0,69,0.00,,,0.00,meteohub,2013-01-13 16:56:00,
2013-01-13 11:01:00,36.1,27.3,30.20,NNE,12,6.0,11.0,70,0.00,,,0.00,meteohub,2013-01-13 17:01:00,
2013-01-13 11:06:00,36.1,27.0,30.20,WNW,302,6.0,18.0,69,0.00,,,0.00,meteohub,2013-01-13 17:06:00,
2013-01-13 11:12:00,36.7,27.5,30.20,NNE,15,12.0,18.0,69,0.00,,,0.00,meteohub,2013-01-13 17:12:00,
2013-01-13 11:17:00,36.7,27.1,30.20,NNE,13,6.0,18.0,68,0.00,,,0.00,meteohub,2013-01-13 17:17:00,
2013-01-13 11:22:00,36.9,27.3,30.20,NNW,338,5.0,18.0,68,0.00,,,0.00,meteohub,2013-01-13 17:22:00,
2013-01-13 11:27:00,37.2,28.0,30.20,NNW,338,1.0,14.0,69,0.00,,,0.00,meteohub,2013-01-13 17:27:00,
2013-01-13 11:32:00,37.9,27.7,30.20,NNW,329,7.0,14.0,66,0.00,,,0.00,meteohub,2013-01-13 17:32:00,
2013-01-13 11:37:00,37.9,27.7,30.20,NNE,20,9.0,14.0,66,0.00,,,0.00,meteohub,2013-01-13 17:37:00,
2013-01-13 11:43:00,37.8,27.9,30.19,North,5,4.0,13.0,67,0.00,,,0.00,meteohub,2013-01-13 17:43:00,
2013-01-13 11:48:00,38.7,27.9,30.19,NW,321,11.0,13.0,65,0.00,,,0.00,meteohub,2013-01-13 17:48:00,
2013-01-13 11:53:00,39.0,28.6,30.19,NNW,332,5.0,15.0,66,0.00,,,0.00,meteohub,2013-01-13 17:53:00,
2013-01-13 11:58:00,39.0,27.9,30.19,North,0,5.0,15.0,64,0.00,,,0.00,meteohub,2013-01-13 17:58:00,
2013-01-13 12:03:00,38.7,27.9,30.19,NW,317,4.0,15.0,65,0.00,,,0.00,meteohub,2013-01-13 18:03:00,
2013-01-13 12:09:00,39.2,28.8,30.19,NNE,28,11.0,15.0,66,0.00,,,0.00,meteohub,2013-01-13 18:09:00,
2013-01-13 12:14:00,39.2,27.7,30.19,NNW,343,5.0,19.0,63,0.00,,,0.00,meteohub,2013-01-13 18:14:00,
2013-01-13 12:19:00,39.0,27.9,30.18,NW,317,5.0,19.0,64,0.00,,,0.00,meteohub,2013-01-13 18:19:00,
2013-01-13 12:24:00,39.6,28.4,30.18,NW,311,5.0,19.0,64,0.00,,,0.00,meteohub,2013-01-13 18:24:00,
2013-01-13 12:30:00,39.7,28.2,30.18,NW,323,6.0,19.0,63,0.00,,,0.00,meteohub,2013-01-13 18:30:00,
2013-01-13 12:35:00,39.6,27.7,30.17,NW,316,4.0,15.0,62,0.00,,,0.00,meteohub,2013-01-13 18:35:00,
2013-01-13 12:41:00,39.9,27.5,30.17,NNW,327,4.0,15.0,61,0.00,,,0.00,meteohub,2013-01-13 18:41:00,
2013-01-13 12:46:00,39.9,27.5,30.17,NNE,20,4.0,15.0,61,0.00,,,0.00,meteohub,2013-01-13 18:46:00,
2013-01-13 12:51:00,39.7,27.0,30.16,NNW,331,8.0,11.0,60,0.00,,,0.00,meteohub,2013-01-13 18:51:00,
2013-01-13 12:56:00,39.9,27.5,30.17,NNW,331,7.0,11.0,61,0.00,,,0.00,meteohub,2013-01-13 18:56:00,
2013-01-13 13:02:00,40.3,27.5,30.17,NW,315,9.0,11.0,60,0.00,,,0.00,meteohub,2013-01-13 19:02:00,
2013-01-13 13:07:00,40.5,26.8,30.17,NNW,347,5.0,16.0,58,0.00,,,0.00,meteohub,2013-01-13 19:07:00,
2013-01-13 13:12:00,40.8,28.0,30.17,NW,317,3.0,16.0,60,0.00,,,0.00,meteohub,2013-01-13 19:12:00,
2013-01-13 13:17:00,41.4,27.7,30.16,North,5,6.0,15.0,58,0.00,,,0.00,meteohub,2013-01-13 19:17:00,
2013-01-13 13:23:00,40.8,27.1,30.16,NNE,24,4.0,15.0,58,0.00,,,0.00,meteohub,2013-01-13 19:23:00,
2013-01-13 13:28:00,40.8,27.1,30.16,North,351,4.0,13.0,58,0.00,,,0.00,meteohub,2013-01-13 19:28:00,
2013-01-13 13:33:00,41.5,28.2,30.16,North,11,0.0,13.0,59,0.00,,,0.00,meteohub,2013-01-13 19:33:00,
2013-01-13 13:39:00,42.1,27.9,30.16,NNE,24,3.0,13.0,57,0.00,,,0.00,meteohub,2013-01-13 19:39:00,
2013-01-13 13:44:00,42.3,28.6,30.16,NNE,32,12.0,12.0,58,0.00,,,0.00,meteohub,2013-01-13 19:44:00,
2013-01-13 13:49:00,42.6,28.9,30.16,NE,41,3.0,12.0,58,0.00,,,0.00,meteohub,2013-01-13 19:49:00,
2013-01-13 13:54:00,42.4,29.1,30.16,North,355,4.0,12.0,59,0.00,,,0.00,meteohub,2013-01-13 19:54:00,
2013-01-13 13:59:00,43.2,29.3,30.16,NNE,32,4.0,12.0,58,0.00,,,0.00,meteohub,2013-01-13 19:59:00,
2013-01-13 14:05:00,42.8,29.1,30.16,NNE,19,5.0,9.0,58,0.00,,,0.00,meteohub,2013-01-13 20:05:00,
2013-01-13 14:10:00,43.0,29.7,30.16,North,355,8.0,9.0,59,0.00,,,0.00,meteohub,2013-01-13 20:10:00,
2013-01-13 14:15:00,43.2,28.9,30.16,North,0,6.0,12.0,57,0.00,,,0.00,meteohub,2013-01-13 20:15:00,
2013-01-13 14:20:00,43.2,29.3,30.16,NNW,345,3.0,12.0,58,0.00,,,0.00,meteohub,2013-01-13 20:20:00,
2013-01-13 14:26:00,43.2,28.9,30.16,North,5,3.0,12.0,57,0.00,,,0.00,meteohub,2013-01-13 20:26:00,
2013-01-13 14:31:00,43.0,28.8,30.16,NNW,346,7.0,11.0,57,0.00,,,0.00,meteohub,2013-01-13 20:31:00,
2013-01-13 14:36:00,43.2,28.9,30.16,NNE,31,4.0,11.0,57,0.00,,,0.00,meteohub,2013-01-13 20:36:00,
2013-01-13 14:42:00,43.5,29.3,30.15,NNW,348,2.0,14.0,57,0.00,,,0.00,meteohub,2013-01-13 20:42:00,
2013-01-13 14:47:00,43.7,29.1,30.15,NNE,22,4.0,14.0,56,0.00,,,0.00,meteohub,2013-01-13 20:47:00,
2013-01-13 14:52:00,43.7,29.1,30.16,North,11,6.0,11.0,56,0.00,,,0.00,meteohub,2013-01-13 20:52:00,
2013-01-13 14:57:00,43.9,28.4,30.15,North,351,4.0,11.0,54,0.00,,,0.00,meteohub,2013-01-13 20:57:00,
2013-01-13 15:02:00,43.3,27.9,30.16,NNE,12,6.0,11.0,54,0.00,,,0.00,meteohub,2013-01-13 21:02:00,
2013-01-13 15:07:00,43.2,28.0,30.16,NNE,26,9.0,10.0,55,0.00,,,0.00,meteohub,2013-01-13 21:07:00,
2013-01-13 15:12:00,43.2,28.0,30.16,NNW,342,3.0,10.0,55,0.00,,,0.00,meteohub,2013-01-13 21:12:00,
2013-01-13 15:18:00,43.3,28.2,30.17,NNE,19,2.0,11.0,55,0.00,,,0.00,meteohub,2013-01-13 21:18:00,
2013-01-13 15:23:00,43.5,28.0,30.17,NNE,27,7.0,11.0,54,0.00,,,0.00,meteohub,2013-01-13 21:23:00,
2013-01-13 15:28:00,43.3,27.9,30.17,NNE,24,5.0,10.0,54,0.00,,,0.00,meteohub,2013-01-13 21:28:00,
2013-01-13 15:33:00,43.2,28.0,30.17,North,0,3.0,10.0,55,0.00,,,0.00,meteohub,2013-01-13 21:33:00,
2013-01-13 15:39:00,43.3,27.9,30.17,North,5,3.0,10.0,54,0.00,,,0.00,meteohub,2013-01-13 21:39:00,
2013-01-13 15:44:00,43.5,28.0,30.17,NE,45,5.0,10.0,54,0.00,,,0.00,meteohub,2013-01-13 21:44:00,
2013-01-13 15:49:00,43.3,28.2,30.17,NNE,23,3.0,10.0,55,0.00,,,0.00,meteohub,2013-01-13 21:49:00,
2013-01-13 15:54:00,43.7,28.2,30.17,NNE,26,7.0,10.0,54,0.00,,,0.00,meteohub,2013-01-13 21:54:00,
2013-01-13 16:00:00,43.2,27.7,30.17,NNE,29,7.0,10.0,54,0.00,,,0.00,meteohub,2013-01-13 22:00:00,
2013-01-13 16:05:00,43.3,27.9,30.17,NNE,24,5.0,9.0,54,0.00,,,0.00,meteohub,2013-01-13 22:05:00,
2013-01-13 16:10:00,43.0,27.0,30.17,North,5,4.0,9.0,53,0.00,,,0.00,meteohub,2013-01-13 22:10:00,
2013-01-13 16:15:00,42.6,27.1,30.17,North,5,4.0,9.0,54,0.00,,,0.00,meteohub,2013-01-13 22:15:00,
2013-01-13 16:20:00,42.4,27.0,30.17,NNE,15,3.0,9.0,54,0.00,,,0.00,meteohub,2013-01-13 22:20:00,
2013-01-13 16:26:00,42.6,27.1,30.17,NE,34,8.0,9.0,54,0.00,,,0.00,meteohub,2013-01-13 22:26:00,
2013-01-13 16:31:00,42.4,26.6,30.17,NNE,28,3.0,11.0,53,0.00,,,0.00,meteohub,2013-01-13 22:31:00,
2013-01-13 16:36:00,42.4,27.0,30.17,NE,36,4.0,11.0,54,0.00,,,0.00,meteohub,2013-01-13 22:36:00,
2013-01-13 16:42:00,42.3,26.8,30.17,NNE,29,1.0,8.0,54,0.00,,,0.00,meteohub,2013-01-13 22:42:00,
2013-01-13 16:47:00,42.3,26.8,30.18,NNE,17,4.0,8.0,54,0.00,,,0.00,meteohub,2013-01-13 22:47:00,
2013-01-13 16:52:00,42.1,26.6,30.18,NNW,347,8.0,10.0,54,0.00,,,0.00,meteohub,2013-01-13 22:52:00,
2013-01-13 16:57:00,42.1,26.6,30.18,NNE,13,4.0,10.0,54,0.00,,,0.00,meteohub,2013-01-13 22:57:00,
2013-01-13 17:02:00,42.1,26.6,30.18,NNE,26,5.0,10.0,54,0.00,,,0.00,meteohub,2013-01-13 23:02:00,
2013-01-13 17:07:00,41.7,26.2,30.19,North,0,2.0,11.0,54,0.00,,,0.00,meteohub,2013-01-13 23:07:00,
2013-01-13 17:12:00,41.5,26.1,30.19,NNE,22,5.0,11.0,54,0.00,,,0.00,meteohub,2013-01-13 23:12:00,
2013-01-13 17:17:00,41.2,26.2,30.19,NNE,26,2.0,8.0,55,0.00,,,0.00,meteohub,2013-01-13 23:17:00,
2013-01-13 17:22:00,40.8,25.9,30.19,NE,36,1.0,8.0,55,0.00,,,0.00,meteohub,2013-01-13 23:22:00,
2013-01-13 17:27:00,40.5,26.1,30.19,NNW,348,4.0,8.0,56,0.00,,,0.00,meteohub,2013-01-13 23:27:00,
2013-01-13 17:32:00,40.3,26.2,30.19,NNE,12,2.0,8.0,57,0.00,,,0.00,meteohub,2013-01-13 23:32:00,
2013-01-13 17:37:00,39.9,26.4,30.19,NNE,18,4.0,8.0,58,0.00,,,0.00,meteohub,2013-01-13 23:37:00,
2013-01-13 17:43:00,39.7,26.6,30.19,NE,47,2.0,8.0,59,0.00,,,0.00,meteohub,2013-01-13 23:43:00,
2013-01-13 17:48:00,39.4,26.2,30.19,North,5,6.0,8.0,59,0.00,,,0.00,meteohub,2013-01-13 23:48:00,
2013-01-13 17:53:00,39.0,25.9,30.19,NNE,28,4.0,8.0,59,0.00,,,0.00,meteohub,2013-01-13 23:53:00,
2013-01-13 17:58:00,38.7,25.5,30.19,NNE,24,3.0,8.0,59,0.00,,,0.00,meteohub,2013-01-13 23:58:00,
2013-01-13 18:04:00,38.5,25.3,30.19,NNE,32,4.0,8.0,59,0.00,,,0.00,meteohub,2013-01-14 00:04:00,
2013-01-13 18:09:00,38.1,25.5,30.20,NNE,25,2.0,6.0,60,0.00,,,0.00,meteohub,2013-01-14 00:09:00,
2013-01-13 18:14:00,37.9,25.7,30.20,NNE,24,3.0,7.0,61,0.00,,,0.00,meteohub,2013-01-14 00:14:00,
2013-01-13 18:19:00,37.9,25.7,30.20,NNE,19,2.0,7.0,61,0.00,,,0.00,meteohub,2013-01-14 00:19:00,
2013-01-13 18:25:00,37.8,25.5,30.21,NNE,12,5.0,7.0,61,0.00,,,0.00,meteohub,2013-01-14 00:25:00,
2013-01-13 18:30:00,37.8,25.9,30.21,NNE,16,0.0,7.0,62,0.00,,,0.00,meteohub,2013-01-14 00:30:00,
2013-01-13 18:35:00,37.6,25.7,30.20,NNE,19,1.0,7.0,62,0.00,,,0.00,meteohub,2013-01-14 00:35:00,
2013-01-13 18:41:00,37.4,25.5,30.20,NNE,21,3.0,7.0,62,0.00,,,0.00,meteohub,2013-01-14 00:41:00,
2013-01-13 18:46:00,37.2,25.3,30.21,North,0,2.0,7.0,62,0.00,,,0.00,meteohub,2013-01-14 00:46:00,
2013-01-13 18:51:00,37.2,25.3,30.20,NNE,17,4.0,6.0,62,0.00,,,0.00,meteohub,2013-01-14 00:51:00,
2013-01-13 18:56:00,37.0,25.2,30.21,NNE,32,3.0,6.0,62,0.00,,,0.00,meteohub,2013-01-14 00:56:00,
2013-01-13 19:02:00,37.0,25.2,30.21,NNE,19,3.0,6.0,62,0.00,,,0.00,meteohub,2013-01-14 01:02:00,
2013-01-13 19:07:00,36.9,25.5,30.21,NNE,14,3.0,6.0,63,0.00,,,0.00,meteohub,2013-01-14 01:07:00,
2013-01-13 19:12:00,36.7,25.3,30.21,NE,35,3.0,6.0,63,0.00,,,0.00,meteohub,2013-01-14 01:12:00,
2013-01-13 19:17:00,36.5,24.8,30.21,NE,41,5.0,6.0,62,0.00,,,0.00,meteohub,2013-01-14 01:17:00,
2013-01-13 19:22:00,36.3,25.0,30.22,NE,39,3.0,6.0,63,0.00,,,0.00,meteohub,2013-01-14 01:22:00,
2013-01-13 19:27:00,36.1,24.8,30.22,NNE,24,2.0,6.0,63,0.00,,,0.00,meteohub,2013-01-14 01:27:00,
2013-01-13 19:32:00,36.0,24.6,30.22,NE,35,4.0,6.0,63,0.00,,,0.00,meteohub,2013-01-14 01:32:00,
2013-01-13 19:37:00,35.8,24.4,30.22,NNE,27,3.0,7.0,63,0.00,,,0.00,meteohub,2013-01-14 01:37:00,
2013-01-13 19:42:00,35.4,24.1,30.22,NE,38,2.0,7.0,63,0.00,,,0.00,meteohub,2013-01-14 01:42:00,
2013-01-13 19:47:00,35.4,24.1,30.23,NE,34,4.0,6.0,63,0.00,,,0.00,meteohub,2013-01-14 01:47:00,
2013-01-13 19:52:00,35.2,23.9,30.23,NE,34,2.0,6.0,63,0.00,,,0.00,meteohub,2013-01-14 01:52:00,
2013-01-13 19:57:00,35.1,24.1,30.23,NNE,30,2.0,4.0,64,0.00,,,0.00,meteohub,2013-01-14 01:57:00,
2013-01-13 20:02:00,34.9,23.9,30.23,NNE,29,2.0,4.0,64,0.00,,,0.00,meteohub,2013-01-14 02:02:00,
2013-01-13 20:07:00,34.9,23.5,30.23,NNE,28,2.0,4.0,63,0.00,,,0.00,meteohub,2013-01-14 02:07:00,
2013-01-13 20:12:00,34.7,23.4,30.23,NE,34,2.0,5.0,63,0.00,,,0.00,meteohub,2013-01-14 02:12:00,
2013-01-13 20:17:00,34.7,23.7,30.23,NNE,24,2.0,5.0,64,0.00,,,0.00,meteohub,2013-01-14 02:17:00,
2013-01-13 20:22:00,34.5,23.5,30.23,North,0,0.0,5.0,64,0.00,,,0.00,meteohub,2013-01-14 02:22:00,
2013-01-13 20:27:00,34.3,23.7,30.23,NNE,25,2.0,5.0,65,0.00,,,0.00,meteohub,2013-01-14 02:27:00,
2013-01-13 20:32:00,34.3,23.7,30.22,NNE,27,3.0,5.0,65,0.00,,,0.00,meteohub,2013-01-14 02:32:00,
2013-01-13 20:37:00,34.2,23.5,30.23,North,0,2.0,5.0,65,0.00,,,0.00,meteohub,2013-01-14 02:37:00,
2013-01-13 20:42:00,34.2,24.1,30.23,NNW,343,2.0,5.0,66,0.00,,,0.00,meteohub,2013-01-14 02:42:00,
2013-01-13 20:47:00,34.0,23.9,30.23,NNE,24,3.0,7.0,66,0.00,,,0.00,meteohub,2013-01-14 02:47:00,
2013-01-13 20:52:00,33.8,23.7,30.23,NNE,26,2.0,7.0,66,0.00,,,0.00,meteohub,2013-01-14 02:52:00,
2013-01-13 20:57:00,33.6,23.5,30.23,NNE,26,0.0,5.0,66,0.00,,,0.00,meteohub,2013-01-14 02:57:00,
2013-01-13 21:02:00,33.6,23.9,30.23,NNE,26,2.0,5.0,67,0.00,,,0.00,meteohub,2013-01-14 03:02:00,
2013-01-13 21:07:00,33.4,23.4,30.23,NNE,24,2.0,5.0,66,0.00,,,0.00,meteohub,2013-01-14 03:07:00,
2013-01-13 21:12:00,33.4,23.4,30.24,NNE,20,1.0,6.0,66,0.00,,,0.00,meteohub,2013-01-14 03:12:00,
2013-01-13 21:17:00,33.3,23.2,30.24,NE,40,7.0,7.0,66,0.00,,,0.00,meteohub,2013-01-14 03:17:00,
2013-01-13 21:22:00,33.3,23.2,30.24,NE,34,3.0,7.0,66,0.00,,,0.00,meteohub,2013-01-14 03:22:00,
2013-01-13 21:27:00,33.3,23.2,30.24,NNE,22,2.0,7.0,66,0.00,,,0.00,meteohub,2013-01-14 03:27:00,
2013-01-13 21:32:00,33.1,23.0,30.24,NNE,30,3.0,7.0,66,0.00,,,0.00,meteohub,2013-01-14 03:32:00,
2013-01-13 21:37:00,32.9,23.2,30.24,NNE,22,3.0,7.0,67,0.00,,,0.00,meteohub,2013-01-14 03:37:00,
2013-01-13 21:42:00,32.9,23.2,30.24,North,0,2.0,7.0,67,0.00,,,0.00,meteohub,2013-01-14 03:42:00,
2013-01-13 21:47:00,32.7,23.0,30.24,NNE,19,5.0,7.0,67,0.00,,,0.00,meteohub,2013-01-14 03:47:00,
2013-01-13 21:52:00,32.7,23.0,30.24,NNE,23,4.0,7.0,67,0.00,,,0.00,meteohub,2013-01-14 03:52:00,
2013-01-13 21:58:00,32.5,23.2,30.24,NNE,29,6.0,7.0,68,0.00,,,0.00,meteohub,2013-01-14 03:58:00,
2013-01-13 22:03:00,32.4,23.0,30.25,NNE,32,4.0,7.0,68,0.00,,,0.00,meteohub,2013-01-14 04:03:00,
2013-01-13 22:08:00,32.4,23.0,30.25,North,9,0.0,7.0,68,0.00,,,0.00,meteohub,2013-01-14 04:08:00,
2013-01-13 22:13:00,32.2,23.2,30.25,NE,37,2.0,7.0,69,0.00,,,0.00,meteohub,2013-01-14 04:13:00,
2013-01-13 22:19:00,32.2,23.2,30.25,NNE,22,1.0,7.0,69,0.00,,,0.00,meteohub,2013-01-14 04:19:00,
2013-01-13 22:24:00,32.0,23.0,30.25,NNE,24,3.0,7.0,69,0.00,,,0.00,meteohub,2013-01-14 04:24:00,
2013-01-13 22:29:00,31.8,23.2,30.25,NNE,15,2.0,7.0,70,0.00,,,0.00,meteohub,2013-01-14 04:29:00,
2013-01-13 22:35:00,31.6,23.0,30.25,NNE,20,2.0,7.0,70,0.00,,,0.00,meteohub,2013-01-14 04:35:00,
2013-01-13 22:40:00,31.6,23.0,30.25,NNE,22,3.0,7.0,70,0.00,,,0.00,meteohub,2013-01-14 04:40:00,
2013-01-13 22:45:00,31.5,22.8,30.26,NE,42,2.0,6.0,70,0.00,,,0.00,meteohub,2013-01-14 04:45:00,
2013-01-13 22:50:00,31.5,22.8,30.27,NNE,19,4.0,6.0,70,0.00,,,0.00,meteohub,2013-01-14 04:50:00,
2013-01-13 22:55:00,31.5,22.5,30.27,NNE,22,4.0,6.0,69,0.00,,,0.00,meteohub,2013-01-14 04:55:00,
2013-01-13 23:00:00,31.5,22.5,30.26,NNE,20,5.0,7.0,69,0.00,,,0.00,meteohub,2013-01-14 05:00:00,
2013-01-13 23:07:00,31.3,22.3,30.27,NNE,32,6.0,7.0,69,0.00,,,0.00,meteohub,2013-01-14 05:07:00,
2013-01-13 23:12:00,31.3,22.3,30.27,NNE,24,4.0,10.0,69,0.00,,,0.00,meteohub,2013-01-14 05:12:00,
2013-01-13 23:15:00,31.3,22.3,30.27,NNE,23,1.0,10.0,69,0.00,,,0.00,meteohub,2013-01-14 05:15:00,
2013-01-13 23:21:00,31.1,22.1,30.27,NNE,21,4.0,10.0,69,0.00,,,0.00,meteohub,2013-01-14 05:21:00,
2013-01-13 23:26:00,30.9,22.3,30.27,NNE,24,4.0,10.0,70,0.00,,,0.00,meteohub,2013-01-14 05:26:00,
2013-01-13 23:31:00,30.9,22.3,30.27,NNE,30,3.0,10.0,70,0.00,,,0.00,meteohub,2013-01-14 05:31:00,
2013-01-13 23:37:00,30.7,21.7,30.27,NNE,23,4.0,16.0,69,0.00,,,0.00,meteohub,2013-01-14 05:37:00,
2013-01-13 23:42:00,30.7,21.7,30.28,NNE,30,4.0,16.0,69,0.00,,,0.00,meteohub,2013-01-14 05:42:00,
2013-01-13 23:47:00,30.7,22.1,30.27,NNE,29,5.0,16.0,70,0.00,,,0.00,meteohub,2013-01-14 05:47:00,
2013-01-13 23:52:00,30.6,21.9,30.27,NNE,20,3.0,16.0,70,0.00,,,0.00,meteohub,2013-01-14 05:52:00,
2013-01-13 23:57:00,30.6,21.9,30.27,NNE,20,2.0,9.0,70,0.00,,,0.00,meteohub,2013-01-14 05:57:00,